Precipitable_Water
0.38 0.40 0.41 0.40 0.41 0.46 0.44 0.45 0.39 0.45 0.47 0.50 0.51 0.50 0.43 0.36 0.28 0.24 0.25 0.28 0.32 0.35 0.35 0.35 0.33 0.28 0.25 0.25 0.25 0.24 0.22 0.22 0.21 0.21 0.19 0.17 0.15 0.14 0.15 0.18 0.25 0.28 0.35 0.42
0.31 0.40 0.46 0.39 0.44 0.46 0.47 0.49 0.48 0.49 0.47 0.55 0.51 0.49 0.45 0.31 0.24 0.22 0.24 0.28 0.32 0.35 0.34 0.33 0.31 0.26 0.24 0.25 0.24 0.24 0.22 0.21 0.21 0.20 0.17 0.15 0.14 0.13 0.14 0.18 0.23 0.28 0.33 0.41
0.27 0.41 0.41 0.36 0.41 0.42 0.45 0.49 0.48 0.41 0.52 0.55 0.43 0.40 0.40 0.28 0.22 0.22 0.24 0.29 0.32 0.33 0.33 0.33 0.30 0.26 0.23 0.24 0.24 0.23 0.22 0.21 0.20 0.19 0.15 0.14 0.13 0.13 0.14 0.17 0.22 0.25 0.31 0.39
0.30 0.37 0.28 0.38 0.44 0.43 0.41 0.41 0.42 0.43 0.44 0.44 0.39 0.42 0.38 0.30 0.22 0.23 0.26 0.30 0.33 0.33 0.33 0.33 0.31 0.26 0.24 0.24 0.23 0.22 0.22 0.21 0.20 0.18 0.14 0.14 0.13 0.13 0.14 0.16 0.19 0.22 0.29 0.36
0.31 0.33 0.39 0.40 0.41 0.36 0.34 0.31 0.39 0.39 0.40 0.42 0.41 0.37 0.33 0.29 0.26 0.26 0.30 0.33 0.34 0.35 0.35 0.34 0.29 0.24 0.23 0.22 0.22 0.21 0.21 0.20 0.20 0.18 0.14 0.13 0.12 0.13 0.14 0.15 0.16 0.19 0.26 0.33
0.37 0.31 0.29 0.42 0.45 0.42 0.40 0.27 0.41 0.38 0.36 0.40 0.37 0.24 0.26 0.28 0.27 0.30 0.33 0.35 0.33 0.34 0.34 0.32 0.28 0.24 0.22 0.21 0.21 0.21 0.21 0.21 0.20 0.17 0.16 0.14 0.13 0.13 0.15 0.15 0.14 0.17 0.22 0.29
0.33 0.33 0.41 0.50 0.50 0.45 0.31 0.31 0.36 0.37 0.37 0.41 0.32 0.33 0.27 0.27 0.28 0.32 0.33 0.33 0.34 0.34 0.33 0.31 0.27 0.23 0.21 0.21 0.20 0.22 0.21 0.20 0.19 0.17 0.16 0.16 0.14 0.14 0.15 0.14 0.14 0.15 0.18 0.24
0.36 0.34 0.33 0.54 0.51 0.42 0.47 0.41 0.34 0.39 0.40 0.40 0.34 0.32 0.26 0.26 0.27 0.30 0.29 0.31 0.33 0.32 0.32 0.30 0.26 0.22 0.20 0.20 0.21 0.21 0.20 0.19 0.18 0.17 0.17 0.16 0.16 0.15 0.15 0.14 0.13 0.13 0.13 0.16
0.39 0.43 0.58 0.59 0.56 0.55 0.46 0.34 0.32 0.38 0.44 0.38 0.33 0.28 0.26 0.24 0.27 0.28 0.29 0.30 0.32 0.32 0.31 0.29 0.25 0.22 0.20 0.21 0.21 0.20 0.18 0.18 0.17 0.16 0.17 0.17 0.16 0.16 0.16 0.14 0.13 0.12 0.11 0.11
0.45 0.54 0.55 0.59 0.61 0.56 0.48 0.36 0.34 0.38 0.39 0.31 0.27 0.28 0.26 0.25 0.26 0.26 0.29 0.29 0.31 0.32 0.30 0.26 0.24 0.22 0.22 0.22 0.21 0.18 0.16 0.16 0.17 0.16 0.16 0.18 0.18 0.17 0.16 0.16 0.14 0.12 0.10 0.11
0.49 0.56 0.57 0.58 0.58 0.51 0.44 0.36 0.33 0.38 0.37 0.30 0.28 0.28 0.25 0.25 0.25 0.26 0.28 0.30 0.31 0.31 0.30 0.25 0.23 0.23 0.22 0.22 0.20 0.17 0.15 0.16 0.16 0.17 0.17 0.16 0.17 0.18 0.17 0.16 0.16 0.14 0.14 0.10
0.46 0.56 0.56 0.54 0.53 0.47 0.36 0.34 0.32 0.35 0.36 0.32 0.29 0.25 0.26 0.25 0.26 0.27 0.28 0.30 0.30 0.31 0.30 0.25 0.23 0.23 0.23 0.23 0.21 0.17 0.15 0.15 0.16 0.17 0.17 0.18 0.17 0.16 0.17 0.17 0.16 0.14 0.14 0.15
0.55 0.58 0.56 0.54 0.53 0.51 0.36 0.36 0.34 0.37 0.38 0.29 0.28 0.27 0.28 0.26 0.27 0.28 0.29 0.30 0.29 0.29 0.29 0.25 0.23 0.23 0.24 0.24 0.23 0.19 0.16 0.15 0.15 0.16 0.17 0.17 0.18 0.18 0.17 0.16 0.16 0.14 0.14 0.12
0.60 0.61 0.54 0.57 0.49 0.46 0.40 0.39 0.39 0.39 0.35 0.29 0.28 0.28 0.28 0.27 0.27 0.27 0.27 0.29 0.30 0.28 0.27 0.24 0.23 0.23 0.24 0.26 0.24 0.22 0.20 0.16 0.17 0.17 0.17 0.18 0.18 0.18 0.19 0.18 0.16 0.16 0.14 0.13
0.64 0.63 0.57 0.57 0.49 0.41 0.40 0.40 0.37 0.34 0.31 0.27 0.29 0.27 0.27 0.25 0.26 0.27 0.28 0.29 0.28 0.27 0.25 0.23 0.22 0.23 0.25 0.26 0.25 0.24 0.22 0.21 0.21 0.20 0.19 0.18 0.18 0.19 0.18 0.19 0.18 0.18 0.18 0.16
0.66 0.62 0.56 0.53 0.50 0.42 0.40 0.36 0.33 0.32 0.31 0.29 0.28 0.29 0.28 0.29 0.29 0.29 0.28 0.27 0.24 0.22 0.23 0.21 0.22 0.25 0.26 0.26 0.26 0.26 0.26 0.24 0.24 0.23 0.20 0.19 0.19 0.18 0.18 0.18 0.18 0.18 0.18 0.17
0.64 0.55 0.54 0.51 0.48 0.48 0.42 0.39 0.35 0.34 0.33 0.32 0.31 0.31 0.30 0.29 0.29 0.28 0.27 0.27 0.27 0.24 0.23 0.21 0.22 0.26 0.27 0.25 0.26 0.27 0.28 0.25 0.25 0.25 0.24 0.22 0.21 0.19 0.19 0.19 0.18 0.18 0.18 0.17
0.69 0.63 0.61 0.56 0.53 0.52 0.50 0.44 0.42 0.39 0.34 0.34 0.34 0.32 0.31 0.29 0.26 0.26 0.27 0.28 0.27 0.25 0.24 0.22 0.24 0.26 0.27 0.26 0.27 0.28 0.27 0.26 0.25 0.26 0.26 0.25 0.24 0.23 0.21 0.20 0.19 0.19 0.19 0.18
0.66 0.62 0.62 0.60 0.61 0.60 0.58 0.54 0.47 0.47 0.45 0.42 0.35 0.30 0.31 0.31 0.31 0.30 0.29 0.26 0.23 0.21 0.22 0.23 0.22 0.23 0.25 0.27 0.27 0.28 0.27 0.26 0.26 0.27 0.27 0.27 0.25 0.26 0.25 0.23 0.22 0.21 0.21 0.19
0.63 0.64 0.65 0.64 0.65 0.64 0.63 0.62 0.59 0.54 0.52 0.48 0.45 0.43 0.32 0.28 0.29 0.29 0.30 0.25 0.24 0.24 0.25 0.23 0.22 0.22 0.24 0.26 0.26 0.28 0.27 0.27 0.26 0.27 0.28 0.28 0.27 0.27 0.27 0.25 0.25 0.25 0.24 0.23
0.65 0.66 0.66 0.65 0.65 0.68 0.68 0.68 0.63 0.58 0.57 0.55 0.49 0.44 0.43 0.43 0.32 0.29 0.28 0.26 0.28 0.28 0.26 0.24 0.22 0.22 0.24 0.25 0.24 0.28 0.28 0.27 0.27 0.27 0.27 0.28 0.28 0.28 0.28 0.28 0.26 0.26 0.26 0.27
0.65 0.65 0.65 0.68 0.67 0.68 0.69 0.68 0.70 0.66 0.61 0.58 0.55 0.52 0.47 0.45 0.43 0.40 0.34 0.30 0.34 0.31 0.28 0.25 0.24 0.23 0.23 0.23 0.23 0.25 0.27 0.27 0.27 0.28 0.28 0.28 0.28 0.28 0.28 0.28 0.28 0.28 0.28 0.28
0.58 0.63 0.65 0.65 0.65 0.66 0.71 0.70 0.69 0.67 0.63 0.61 0.58 0.55 0.52 0.52 0.47 0.41 0.38 0.41 0.38 0.33 0.30 0.27 0.25 0.24 0.23 0.24 0.24 0.24 0.25 0.25 0.25 0.26 0.28 0.29 0.28 0.28 0.28 0.28 0.28 0.29 0.29 0.29
0.49 0.50 0.52 0.59 0.62 0.60 0.58 0.63 0.68 0.71 0.69 0.66 0.66 0.63 0.57 0.55 0.54 0.51 0.49 0.46 0.43 0.38 0.34 0.32 0.29 0.26 0.25 0.25 0.26 0.25 0.24 0.25 0.24 0.25 0.26 0.27 0.28 0.28 0.29 0.29 0.30 0.31 0.31 0.31
0.53 0.51 0.48 0.45 0.43 0.46 0.55 0.59 0.59 0.62 0.68 0.68 0.67 0.66 0.65 0.63 0.59 0.58 0.55 0.51 0.46 0.43 0.40 0.37 0.34 0.31 0.29 0.28 0.27 0.26 0.25 0.25 0.25 0.25 0.25 0.25 0.26 0.26 0.28 0.29 0.30 0.31 0.32 0.33
0.51 0.52 0.52 0.51 0.48 0.46 0.46 0.51 0.56 0.60 0.58 0.63 0.69 0.69 0.69 0.66 0.65 0.62 0.59 0.56 0.52 0.45 0.44 0.43 0.40 0.37 0.35 0.33 0.30 0.28 0.27 0.26 0.26 0.25 0.26 0.26 0.27 0.29 0.30 0.32 0.34 0.35 0.36 0.38
0.49 0.49 0.51 0.53 0.52 0.51 0.50 0.48 0.44 0.50 0.60 0.60 0.60 0.67 0.70 0.70 0.68 0.65 0.61 0.58 0.53 0.49 0.46 0.46 0.44 0.41 0.40 0.39 0.36 0.34 0.32 0.30 0.28 0.27 0.28 0.28 0.30 0.31 0.33 0.35 0.37 0.38 0.39 0.40
Wind_Speed
13 14 14 14 13 11 9 6 3 1 3 7 5 3 6 8 9 9 9 7 6 6 6 8 10 12 14 16 18 20 22 23 25 27 29 32 33 31 27 28 28 28 30 31
11 9 8 11 11 11 11 10 10 8 9 2 2 4 8 9 10 10 9 8 8 7 8 9 11 12 14 16 18 20 22 23 25 27 30 32 33 30 28 28 28 30 31 32
6 5 9 4 4 5 5 8 7 7 4 3 2 5 10 11 11 11 10 11 10 9 9 10 12 14 15 17 19 21 22 23 25 27 30 32 32 30 29 29 29 31 33 34
6 6 4 2 2 1 1 2 4 6 5 2 3 7 11 11 12 12 12 12 11 10 10 11 13 15 17 18 20 22 23 24 25 27 30 32 32 30 30 30 30 31 33 35
5 3 4 5 5 3 2 5 4 1 1 6 8 11 11 13 12 13 14 13 12 12 12 12 13 15 17 19 21 23 24 25 26 28 30 33 32 31 31 32 31 31 33 35
4 4 5 4 5 2 2 3 6 3 3 9 10 9 12 15 15 15 16 15 14 13 13 13 14 16 18 20 22 24 25 25 26 28 30 33 33 31 31 33 32 32 33 35
7 5 5 1 4 1 3 3 6 3 4 11 9 7 17 18 17 17 17 16 16 14 13 14 14 16 18 20 23 24 26 26 27 28 30 33 34 32 31 33 34 34 34 35
10 8 7 3 1 4 5 3 3 4 9 12 11 15 19 19 19 19 18 18 16 15 14 13 14 16 17 20 22 24 26 27 28 29 30 32 35 35 33 33 34 35 35 35
10 9 4 5 2 4 2 1 2 4 10 12 13 17 20 21 20 20 19 18 16 15 14 14 14 15 17 19 21 24 26 28 29 30 30 32 35 37 36 34 34 34 35 36
9 12 5 4 1 4 4 1 1 5 11 13 15 20 21 21 21 20 19 18 16 15 14 14 14 14 16 18 20 23 25 27 29 30 31 32 34 36 38 38 37 35 35 35
12 10 4 11 6 7 4 1 3 9 14 15 18 21 21 21 21 20 18 17 16 15 14 14 14 15 15 17 18 21 23 25 28 29 31 33 34 35 36 38 39 38 37 36
11 5 6 7 8 6 2 1 6 13 16 16 19 21 21 20 21 20 18 17 16 15 14 13 14 14 15 15 17 18 21 23 25 27 29 31 32 34 36 36 37 39 40 38
13 10 9 9 7 3 1 4 10 15 17 18 20 21 20 20 20 19 18 17 16 15 14 14 14 14 14 15 16 17 18 20 22 25 27 28 30 31 33 34 36 36 36 38
12 10 7 4 5 3 4 9 14 16 16 18 21 20 20 19 20 19 18 17 16 15 14 13 13 13 13 14 15 16 17 18 19 21 23 25 27 29 30 32 33 34 36 36
12 10 8 5 4 7 9 12 14 15 17 18 20 20 19 19 19 18 18 17 16 15 14 13 12 12 12 12 13 14 15 16 16 18 19 21 23 25 27 28 29 31 32 33
12 10 8 7 6 9 10 12 13 14 16 18 19 19 18 18 18 18 18 17 16 14 14 13 12 11 11 11 11 11 12 13 14 15 16 17 19 21 22 23 25 26 28 29
15 13 10 9 8 8 9 11 12 13 14 16 18 19 18 18 17 18 17 17 15 14 13 12 12 11 11 10 10 9 9 10 11 12 13 13 14 15 17 18 20 21 23 24
14 14 12 11 9 8 8 9 11 12 13 14 17 18 19 19 18 19 18 17 15 14 13 12 12 11 11 10 9 8 8 8 8 9 9 10 11 11 12 13 14 15 17 18
14 14 14 13 10 9 9 9 11 11 11 13 14 17 18 18 18 18 19 18 16 15 14 13 13 12 11 10 9 8 7 7 7 7 7 7 8 8 9 9 10 11 11 12
14 14 14 13 11 10 10 9 10 10 10 11 12 14 16 17 18 19 19 19 19 16 15 15 14 13 12 11 10 9 8 7 6 5 5 5 5 5 5 6 7 7 7 8
12 13 13 13 12 11 10 10 10 11 10 10 11 13 15 17 18 19 19 19 20 18 17 17 16 15 13 12 13 10 9 8 7 6 5 4 3 3 2 3 3 3 4 4
9 11 11 12 12 12 12 13 12 12 13 11 11 12 15 16 18 19 19 19 19 20 19 18 18 17 15 15 14 13 12 11 9 8 7 6 4 3 2 2 1 1 2 2
6 7 9 10 10 11 11 11 13 15 15 14 14 15 16 17 19 19 19 20 20 21 21 20 20 19 18 17 16 15 14 13 12 11 10 9 8 7 6 6 5 5 5 5
4 4 5 6 7 8 9 11 12 13 16 18 17 16 17 17 18 20 19 19 21 21 22 21 21 21 20 19 18 17 17 16 15 14 13 12 11 10 10 9 8 8 8 8
4 3 3 3 3 5 7 8 10 11 12 15 19 19 19 18 19 19 20 21 21 22 22 22 22 22 22 21 21 20 19 18 17 17 16 15 15 14 13 12 11 11 11 11
7 6 5 4 4 5 5 6 8 9 10 12 15 19 20 20 20 20 20 20 22 23 23 23 23 24 23 23 23 22 22 21 20 20 19 18 18 17 16 15 15 14 14 14
9 9 9 8 7 7 8 8 8 9 10 11 14 17 19 21 21 22 23 22 22 23 24 24 24 24 24 24 23 23 23 23 23 22 21 21 20 19 19 19 18 18 18 18
Wind_Direction
269 276 271 270 269 266 235 251 221 229 262 287 304 215 159 153 152 149 146 140 123 102 69 48 35 27 22 20 18 16 16 16 17 17 16 16 15 19 26 28 31 32 34 34
272 272 270 274 268 253 245 245 243 273 284 294 82 150 162 159 154 152 146 137 126 103 77 58 45 37 31 27 24 21 22 23 22 22 21 20 21 28 33 36 39 41 40 42
242 261 302 260 244 257 241 223 240 254 243 258 178 162 163 157 156 150 145 138 127 105 83 64 54 45 39 35 31 28 28 28 28 27 26 26 28 35 39 42 46 48 51 50
247 282 192 141 40 162 211 253 242 255 265 215 137 152 155 154 150 146 142 135 124 107 88 73 62 52 46 40 36 34 34 34 34 32 32 31 35 41 44 48 52 56 53 51
213 238 227 119 58 65 87 88 42 19 104 150 136 138 146 150 147 143 139 132 121 109 94 81 67 60 52 45 41 40 40 39 39 38 37 37 41 46 50 52 58 59 58 56
192 202 162 103 33 44 161 126 20 18 130 153 152 152 151 152 145 139 136 128 122 112 98 86 74 65 58 52 47 44 45 45 44 44 43 42 45 51 55 57 60 63 62 62
216 202 199 129 356 85 51 357 352 3 167 156 150 131 145 147 142 139 135 130 123 114 101 90 80 71 64 58 53 50 49 50 49 49 48 48 49 55 59 61 63 64 65 65
191 193 182 35 6 17 332 328 14 56 141 149 138 139 144 145 142 139 135 131 126 116 104 95 85 76 70 63 59 55 54 53 54 54 53 53 53 57 61 63 65 66 66 67
197 191 205 302 295 5 356 308 67 112 143 147 144 146 146 144 143 140 137 133 127 119 109 98 91 82 77 70 65 61 59 58 58 58 58 57 57 58 61 64 66 67 68 68
201 190 236 242 26 347 346 295 169 156 153 148 147 148 146 145 143 141 139 135 131 123 113 104 97 88 83 77 71 66 64 62 61 62 61 62 62 62 63 64 66 68 68 69
204 214 234 182 331 333 320 258 181 164 156 149 149 149 148 146 146 143 141 137 135 128 119 110 103 95 90 83 77 72 68 67 66 65 65 65 65 65 66 66 67 68 69 70
189 236 216 263 299 318 308 189 159 160 155 152 153 152 150 149 148 146 144 142 139 133 125 117 110 102 97 90 83 79 74 71 69 68 68 68 68 68 67 68 68 69 69 71
215 237 245 264 267 269 266 162 154 157 156 154 154 154 152 151 152 149 147 146 144 139 132 124 118 110 103 96 90 85 80 77 74 72 71 70 70 70 70 69 69 69 70 70
223 223 224 217 269 230 155 144 145 148 152 155 156 155 154 154 154 154 153 150 147 144 139 132 126 118 112 104 97 90 85 82 78 75 73 73 72 71 71 71 70 70 70 70
196 193 221 231 177 156 151 151 150 150 153 155 159 160 161 159 161 160 157 155 152 150 146 142 137 129 123 115 106 98 91 87 84 80 77 76 75 74 73 72 72 71 71 71
214 212 209 194 155 155 155 155 155 156 159 162 165 166 166 165 165 165 164 163 160 158 157 153 147 140 135 127 117 108 100 95 89 86 84 80 78 76 75 73 72 72 72 71
203 206 188 172 160 154 158 163 163 165 166 168 172 172 172 171 171 172 172 172 170 167 165 164 158 153 148 142 132 121 111 106 98 92 88 86 83 80 78 76 74 73 72 72
191 197 196 188 177 167 157 157 162 165 169 172 176 180 180 181 181 181 181 180 178 177 177 174 170 166 162 156 148 138 128 119 111 101 96 91 87 85 82 79 77 75 74 73
192 188 185 183 180 177 167 163 168 166 168 173 179 185 188 189 189 188 188 189 189 188 188 185 182 179 176 173 165 157 147 138 130 118 108 100 94 88 84 80 78 77 74 71
188 190 190 190 189 187 186 180 177 176 176 178 183 187 191 194 195 194 195 198 199 199 196 194 193 192 190 188 185 179 172 164 154 145 135 120 108 98 88 82 78 75 71 67
191 194 198 201 204 205 200 198 198 198 195 192 195 197 197 197 198 199 201 204 205 205 203 202 201 201 200 199 198 197 194 190 185 180 173 166 149 130 107 85 74 64 58 51
183 193 201 209 216 216 218 220 219 213 212 212 212 205 204 204 204 207 209 210 208 208 208 208 208 209 208 206 207 208 208 207 206 206 207 207 208 213 221 240 279 322 341 347
162 181 195 207 214 223 224 225 228 228 226 225 221 217 214 214 212 211 213 214 212 211 212 213 213 213 213 214 215 216 217 218 218 221 224 228 233 239 248 257 264 272 284 294
146 164 188 204 217 225 232 235 235 236 232 229 226 224 220 219 219 219 219 218 216 215 216 217 217 217 217 219 221 222 224 226 228 230 234 238 243 247 252 256 262 267 273 279
202 194 201 215 226 234 240 242 239 241 240 233 230 227 225 225 223 223 222 222 221 220 220 221 221 221 223 225 226 228 229 231 233 236 239 243 246 249 253 256 261 266 270 273
232 230 232 242 246 249 250 250 248 248 247 241 236 230 229 230 228 226 226 226 224 223 224 225 225 225 226 229 230 231 233 235 237 239 242 245 247 250 252 256 261 265 269 272
240 242 245 247 256 261 261 262 264 259 256 252 245 238 234 233 233 232 232 230 228 226 226 228 228 228 229 231 233 234 236 238 240 242 244 247 249 251 253 257 261 265 269 272